Total_Precipitation_Accumulation
0.04 0.10 0.25 0.51 1.19 1.33 1.02 0.60 0.44 0.36 0.38 0.42 0.47 0.46 0.47 0.57 0.74 1.26 0.80 0.40 0.25 0.24 0.36 0.76 1.03 1.08 1.09 1.12 1.08 1.09 1.11 1.08 1.18 1.21 1.27 1.21 1.16 1.29 1.38 1.50 1.54 1.68 1.66 1.47 1.41 1.23 1.11 1.10 1.05
0.08 0.14 0.32 0.75 1.22 1.12 0.93 0.48 0.36 0.33 0.31 0.42 0.48 0.39 0.34 0.39 0.29 0.31 0.41 0.37 0.23 0.18 0.26 0.52 0.87 0.94 0.94 0.94 0.95 0.97 0.92 0.87 1.00 1.07 1.13 1.19 1.19 1.31 1.43 1.45 1.47 1.67 1.57 1.44 1.35 1.26 1.08 0.97 0.96
0.12 0.19 0.48 0.93 0.74 0.61 0.58 0.33 0.30 0.36 0.44 0.62 0.72 0.49 0.39 0.51 0.35 0.25 0.22 0.19 0.19 0.19 0.23 0.42 0.71 0.83 0.85 0.83 0.92 0.89 0.77 0.80 0.95 1.02 1.02 1.13 1.22 1.30 1.38 1.36 1.47 1.66 1.65 1.53 1.40 1.27 1.06 0.98 0.94
0.12 0.24 0.48 0.57 0.31 0.25 0.32 0.23 0.30 0.39 0.68 0.80 0.82 0.66 0.53 0.47 0.34 0.26 0.15 0.14 0.18 0.20 0.24 0.37 0.62 0.67 0.71 0.70 0.88 0.84 0.79 0.81 0.93 1.02 0.96 1.00 1.10 1.29 1.41 1.39 1.52 1.61 1.56 1.43 1.33 1.18 1.03 0.93 0.91
0.13 0.28 0.54 0.38 0.15 0.14 0.16 0.14 0.21 0.34 0.59 0.80 0.81 0.86 0.82 0.65 0.47 0.33 0.22 0.16 0.15 0.20 0.29 0.34 0.58 0.63 0.70 0.76 0.86 0.85 0.77 0.75 0.86 0.93 0.88 0.96 1.15 1.37 1.51 1.51 1.58 1.58 1.50 1.30 1.17 1.09 1.01 0.92 0.93
0.20 0.29 0.42 0.27 0.15 0.11 0.12 0.13 0.21 0.41 0.63 0.79 0.94 1.03 0.90 0.69 0.51 0.38 0.29 0.29 0.30 0.23 0.33 0.40 0.57 0.65 0.72 0.80 0.82 0.86 0.81 0.78 0.85 0.98 0.96 1.03 1.25 1.45 1.56 1.66 1.73 1.63 1.48 1.23 1.10 0.97 0.88 0.88 0.94
0.17 0.23 0.26 0.19 0.14 0.10 0.11 0.16 0.26 0.41 0.53 0.82 1.09 1.14 0.88 0.79 0.63 0.45 0.47 0.44 0.68 0.42 0.39 0.42 0.52 0.70 0.79 0.90 0.92 0.90 0.90 0.88 0.96 1.14 1.09 1.13 1.25 1.45 1.57 1.68 1.70 1.61 1.47 1.22 1.06 0.91 0.82 0.86 0.88
0.11 0.14 0.16 0.14 0.08 0.07 0.10 0.16 0.27 0.39 0.66 0.93 0.96 1.03 1.03 0.77 0.70 0.69 0.74 0.70 0.84 0.73 0.54 0.52 0.57 0.74 0.87 0.91 0.92 0.97 0.93 0.94 1.00 1.13 1.19 1.38 1.44 1.51 1.57 1.71 1.70 1.59 1.44 1.19 1.06 0.94 0.87 0.90 0.89
0.06 0.13 0.17 0.12 0.04 0.06 0.12 0.21 0.28 0.34 0.55 0.73 0.81 0.77 0.61 0.59 0.75 0.86 0.95 1.02 1.08 1.05 0.95 0.90 0.80 0.77 0.92 0.93 0.93 1.10 1.13 1.16 1.18 1.23 1.43 1.69 2.02 2.05 2.08 2.02 1.90 1.74 1.58 1.44 1.32 1.22 1.09 1.06 1.00
0.05 0.11 0.09 0.04 0.02 0.05 0.11 0.19 0.32 0.41 0.70 1.06 1.09 1.12 0.78 0.80 0.98 1.05 1.06 1.05 1.20 1.33 1.29 1.36 1.14 0.94 0.93 0.92 1.27 1.66 1.62 1.69 1.75 1.81 1.90 2.27 2.52 2.78 2.37 2.46 2.38 2.28 2.18 1.99 1.91 1.90 1.57 1.23 1.08
0.03 0.04 0.03 0.02 0.01 0.02 0.05 0.11 0.15 0.35 0.78 1.21 1.27 1.24 1.03 1.01 1.13 1.26 1.32 1.44 1.58 1.76 1.56 1.41 1.44 1.39 1.40 1.50 1.57 1.72 2.01 2.17 2.22 2.26 2.31 2.55 2.43 2.51 2.45 2.63 2.88 2.73 2.39 2.12 2.26 2.35 1.90 1.76 1.96
0.02 0.02 0.02 0.01 0.01 0.02 0.04 0.12 0.21 0.36 0.79 1.07 0.98 0.86 0.89 1.10 1.30 1.48 1.85 2.07 2.26 2.39 2.33 2.29 2.11 2.01 2.05 1.92 1.74 1.69 1.81 1.91 1.97 2.08 2.18 2.37 2.63 2.62 2.68 2.88 2.74 2.59 2.49 2.65 2.50 2.65 2.46 2.27 2.11
0.02 0.02 0.02 0.02 0.02 0.03 0.07 0.16 0.29 0.42 0.69 0.67 0.59 0.66 1.06 1.31 1.55 1.86 2.10 2.32 2.55 2.91 3.17 3.67 3.48 2.89 2.59 2.34 2.06 1.69 1.75 1.62 1.51 1.68 1.98 2.12 2.29 2.49 2.64 2.50 2.39 2.10 2.22 2.48 2.57 2.32 2.52 2.51 2.47
0.02 0.02 0.04 0.04 0.03 0.05 0.10 0.15 0.38 0.48 0.58 0.65 0.63 0.92 1.38 1.87 2.07 2.31 2.61 3.01 3.32 3.76 3.81 3.98 4.44 3.83 3.12 2.60 2.25 1.95 1.70 1.71 1.62 1.75 1.75 1.95 2.13 2.21 2.28 2.19 2.19 2.07 2.10 2.27 2.27 2.25 2.54 2.66 2.59
0.02 0.05 0.12 0.12 0.08 0.09 0.14 0.30 0.49 0.62 0.64 0.85 0.91 1.14 1.69 2.33 2.33 2.62 2.92 3.41 3.88 4.34 4.47 4.54 4.80 4.48 3.98 3.39 2.78 2.26 2.03 1.77 1.79 1.90 1.69 1.73 1.90 1.97 2.05 2.06 2.01 2.04 1.96 1.98 1.97 2.03 2.24 2.26 2.22
0.03 0.11 0.26 0.22 0.12 0.12 0.19 0.62 0.79 0.69 0.67 0.95 1.17 1.39 1.86 2.51 2.57 2.88 3.34 3.88 4.58 5.01 5.25 5.27 5.02 4.92 4.56 3.91 3.32 2.89 2.62 2.27 2.02 1.90 1.72 1.56 1.64 1.72 1.83 1.74 1.72 1.71 1.65 1.65 1.84 1.90 2.06 2.22 2.26
0.08 0.13 0.25 0.25 0.18 0.15 0.24 0.69 0.73 0.50 0.66 0.93 1.24 1.53 1.83 2.18 2.66 3.24 3.73 4.32 5.25 6.19 6.62 6.40 5.71 5.23 4.77 4.19 3.68 3.50 3.32 2.86 2.37 2.20 2.00 1.81 1.63 1.59 1.68 1.71 1.73 1.47 1.51 1.56 1.50 1.79 1.96 2.21 2.24
0.05 0.09 0.20 0.29 0.21 0.26 0.35 0.46 0.57 0.63 0.81 1.01 1.22 1.39 1.67 1.97 2.39 3.08 3.66 4.35 5.32 6.52 7.23 7.12 6.44 5.57 4.87 4.48 4.05 3.87 3.57 3.09 2.54 2.33 2.22 1.94 1.80 1.59 1.60 1.52 1.46 1.31 1.47 1.66 1.78 2.15 2.08 2.01 2.00
0.04 0.08 0.16 0.25 0.20 0.30 0.37 0.48 0.63 0.79 1.01 1.04 1.12 1.22 1.44 1.74 2.15 2.83 3.52 4.08 4.75 5.52 6.11 5.97 5.35 4.85 4.26 3.74 3.22 3.15 2.98 2.68 2.40 2.14 1.87 1.82 1.78 1.61 1.67 1.59 1.68 1.43 1.46 1.51 1.52 1.72 1.83 1.74 1.74
0.06 0.09 0.15 0.20 0.17 0.17 0.30 0.57 0.73 0.81 0.97 0.92 0.93 0.95 1.15 1.50 2.10 2.89 3.50 3.71 3.71 4.00 4.26 3.76 3.56 3.55 3.15 2.83 2.76 2.67 2.57 2.29 2.06 1.92 1.87 1.52 1.52 1.52 1.46 1.68 1.58 1.49 1.59 1.54 1.52 1.68 1.79 1.72 1.77
0.08 0.10 0.12 0.17 0.18 0.24 0.39 0.74 0.96 0.88 0.87 0.75 0.73 0.94 1.41 1.81 2.24 2.74 2.90 2.92 2.81 2.79 2.78 2.56 2.50 2.81 2.74 2.68 2.60 2.55 2.56 2.45 2.19 1.86 1.82 1.50 1.33 1.35 1.48 1.52 1.59 1.64 1.38 1.55 1.63 1.57 1.62 1.70 1.65
0.08 0.07 0.05 0.05 0.13 0.36 0.54 0.96 1.13 1.04 0.99 0.73 0.75 1.13 1.64 1.95 2.21 2.19 1.79 1.67 1.82 1.90 2.00 2.26 2.33 2.47 2.39 2.44 2.24 2.02 1.88 1.78 1.70 1.63 1.66 1.66 1.44 1.34 1.31 1.38 1.61 1.69 1.46 1.64 1.30 1.39 1.61 1.70 1.57
0.05 0.05 0.03 0.06 0.16 0.40 0.69 1.12 1.31 1.10 0.93 0.71 0.67 0.77 1.15 1.32 1.28 1.06 0.91 0.98 1.22 1.47 1.71 2.10 2.20 2.25 2.20 2.13 2.10 2.10 1.98 1.97 1.84 1.77 1.91 1.90 1.85 1.64 1.39 1.40 1.59 1.71 1.64 1.65 1.52 1.74 1.54 1.44 1.43
0.05 0.05 0.11 0.21 0.39 0.84 0.91 1.01 1.26 1.06 0.86 0.71 0.55 0.54 0.77 0.79 0.64 0.68 0.73 0.92 1.15 1.32 1.43 1.65 1.83 2.03 2.08 2.10 2.15 2.09 2.06 2.13 1.96 1.81 1.73 1.70 1.75 1.68 1.60 1.58 1.77 1.77 1.71 1.70 1.63 1.67 1.58 1.55 1.55
0.04 0.07 0.28 0.62 0.91 1.04 0.77 0.90 1.20 0.82 0.57 0.47 0.36 0.31 0.34 0.39 0.49 0.67 0.75 0.93 1.02 1.12 1.15 1.24 1.37 1.60 1.78 1.89 1.97 2.00 2.03 2.08 1.90 1.80 1.69 1.64 1.54 1.49 1.60 1.69 1.88 1.79 1.74 1.66 1.69 1.68 1.68 1.72 1.75
0.04 0.04 0.12 0.24 0.36 0.57 0.71 1.09 1.18 0.78 0.45 0.28 0.23 0.25 0.24 0.29 0.36 0.43 0.53 0.57 0.69 0.83 1.02 1.16 1.21 1.25 1.31 1.38 1.59 1.76 1.79 1.83 1.78 1.84 1.64 1.53 1.43 1.43 1.57 1.67 1.62 1.60 1.61 1.51 1.68 1.58 1.54 1.60 1.65
0.04 0.04 0.05 0.07 0.11 0.35 0.77 1.04 0.96 0.64 0.46 0.35 0.31 0.34 0.33 0.31 0.36 0.32 0.34 0.43 0.52 0.54 0.67 0.88 0.97 1.01 1.04 1.12 1.26 1.37 1.44 1.57 1.73 1.70 1.50 1.34 1.37 1.39 1.43 1.41 1.42 1.47 1.49 1.59 1.73 1.65 1.59 1.65 1.55
0.05 0.04 0.04 0.06 0.12 0.26 0.61 1.09 1.27 0.92 0.66 0.52 0.51 0.43 0.38 0.35 0.34 0.35 0.37 0.40 0.47 0.50 0.56 0.71 0.87 0.93 0.96 1.02 1.09 1.05 1.22 1.33 1.49 1.53 1.47 1.32 1.29 1.38 1.43 1.41 1.42 1.43 1.37 1.44 1.61 1.54 1.61 1.69 1.67
0.06 0.05 0.06 0.08 0.09 0.17 0.44 0.72 0.73 0.78 0.64 0.46 0.47 0.44 0.40 0.36 0.36 0.41 0.39 0.44 0.42 0.42 0.52 0.59 0.74 0.86 0.85 0.91 0.97 1.06 1.16 1.33 1.39 1.38 1.41 1.38 1.37 1.42 1.45 1.48 1.51 1.48 1.44 1.48 1.56 1.48 1.59 1.67 1.77
0.08 0.09 0.09 0.10 0.10 0.12 0.22 0.38 0.43 0.48 0.57 0.67 0.56 0.54 0.55 0.49 0.41 0.42 0.40 0.43 0.38 0.40 0.50 0.56 0.62 0.73 0.79 0.86 0.95 1.06 1.14 1.24 1.33 1.30 1.37 1.49 1.49 1.53 1.52 1.55 1.61 1.52 1.53 1.58 1.49 1.49 1.57 1.65 1.69